NOZ5EL LTFG-ENGM

Flight info

Callsign NOZ5EL
Flight time 4h 9m
Altitude 35000
Route EVKOR T336 AYT UQ23 OSVEL UL619 MAKOL DCT ANAVU DCT KENIN DCT LENOV DCT RUMAR DCT SABAK DCT LUNIP
Aircraft B738/M-SDE2E3FGHIRWXY/LB1

Departure

Time 2026-05-04 14:29
Airport Gazipaşa-Alanya Airport (LTFG)

Arrival

Time 2026-05-04 18:39
Airport Oslo-Gardermoen International Airport (ENGM)
Time Latitude Longitude Altitude Speed Heading
2026-05-04 13:38 36.29800 32.30338 126 ft 0 kts 172°
2026-05-04 14:17 36.29803 32.30338 126 ft 3 kts 172°
2026-05-04 14:18 36.29827 32.30332 126 ft 4 kts 165°
2026-05-04 14:18 36.29840 32.30328 126 ft 0 kts 166°
2026-05-04 14:22 36.29839 32.30328 126 ft 0 kts 169°
2026-05-04 14:23 36.29837 32.30311 122 ft 3 kts 270°
2026-05-04 14:23 36.29836 32.30263 126 ft 7 kts 268°
2026-05-04 14:23 36.29831 32.30210 124 ft 6 kts 264°
2026-05-04 14:24 36.29845 32.30167 124 ft 6 kts 318°
2026-05-04 14:24 36.29882 32.30151 122 ft 6 kts 353°
2026-05-04 14:24 36.29924 32.30154 126 ft 6 kts 25°
2026-05-04 14:24 36.29945 32.30204 124 ft 8 kts 80°
2026-05-04 14:25 36.29954 32.30281 126 ft 10 kts 82°
2026-05-04 14:25 36.29973 32.30439 127 ft 9 kts 82°
2026-05-04 14:25 36.29982 32.30514 125 ft 9 kts 81°
2026-05-04 14:26 36.29994 32.30605 127 ft 12 kts 81°
2026-05-04 14:26 36.30009 32.30724 125 ft 16 kts 82°
2026-05-04 14:26 36.30025 32.30860 126 ft 13 kts 81°
2026-05-04 14:26 36.30045 32.30949 124 ft 9 kts 62°
2026-05-04 14:27 36.30059 32.31013 125 ft 2 kts 117°
2026-05-04 14:27 36.30045 32.31015 129 ft 2 kts 214°
2026-05-04 14:27 36.30039 32.30990 127 ft 4 kts 262°
2026-05-04 14:27 36.30038 32.30981 129 ft 0 kts 261°
2026-05-04 14:28 36.30029 32.30900 123 ft 40 kts 262°
2026-05-04 14:29 36.29801 32.28930 110 ft 182 kts 264°
2026-05-04 14:29 36.29409 32.25697 2008 ft 185 kts 262°
2026-05-04 14:30 36.29207 32.24158 3125 ft 179 kts 263°
2026-05-04 14:30 36.29126 32.22581 3765 ft 193 kts 275°
2026-05-04 14:30 36.30365 32.19491 4408 ft 228 kts 329°
2026-05-04 14:31 36.31905 32.18779 4759 ft 249 kts 341°
2026-05-04 14:31 36.35193 32.17075 6051 ft 260 kts 314°
2026-05-04 14:32 36.37192 32.13357 7547 ft 263 kts 297°
2026-05-04 14:32 36.38031 32.11320 8310 ft 266 kts 296°
2026-05-04 14:32 36.38872 32.09258 9081 ft 269 kts 296°
2026-05-04 14:32 36.39726 32.07172 9839 ft 273 kts 297°
2026-05-04 14:33 36.40602 32.05051 10368 ft 284 kts 297°
2026-05-04 14:33 36.41545 32.02781 10537 ft 307 kts 297°
2026-05-04 14:33 36.42561 32.00349 10709 ft 328 kts 297°
2026-05-04 14:33 36.43638 31.97779 11114 ft 340 kts 297°
2026-05-04 14:34 36.44722 31.95196 11692 ft 346 kts 297°
2026-05-04 14:34 36.45857 31.92494 12359 ft 350 kts 297°
2026-05-04 14:34 36.46605 31.90716 12783 ft 353 kts 297°
2026-05-04 14:34 36.47741 31.88011 13503 ft 355 kts 297°
2026-05-04 14:35 36.48886 31.85284 14161 ft 356 kts 297°
2026-05-04 14:35 36.50031 31.82554 14837 ft 357 kts 297°
2026-05-04 14:35 36.51553 31.78924 15719 ft 358 kts 298°
2026-05-04 14:35 36.52331 31.77068 16176 ft 358 kts 298°
2026-05-04 14:36 36.53483 31.74316 16807 ft 360 kts 298°
2026-05-04 14:36 36.54641 31.71548 17439 ft 362 kts 298°
2026-05-04 14:36 36.55804 31.68765 18050 ft 363 kts 298°
2026-05-04 14:36 36.56971 31.65971 18567 ft 365 kts 298°
2026-05-04 14:37 36.58148 31.63150 19019 ft 370 kts 298°
2026-05-04 14:37 36.59335 31.60288 19450 ft 374 kts 297°
2026-05-04 14:37 36.60525 31.57391 19909 ft 377 kts 297°
2026-05-04 14:37 36.61718 31.54476 20377 ft 380 kts 297°
2026-05-04 14:38 36.62917 31.51543 20816 ft 382 kts 298°
2026-05-04 14:38 36.64129 31.48575 21221 ft 386 kts 297°
2026-05-04 14:38 36.65357 31.45581 21656 ft 389 kts 298°
2026-05-04 14:38 36.66591 31.42565 22088 ft 392 kts 298°
2026-05-04 14:39 36.67810 31.39571 22515 ft 394 kts 298°
2026-05-04 14:39 36.69070 31.36471 22928 ft 397 kts 298°
2026-05-04 14:39 36.70326 31.33381 23245 ft 402 kts 298°
2026-05-04 14:40 36.72855 31.27154 23965 ft 407 kts 298°
2026-05-04 14:40 36.74133 31.24004 24293 ft 409 kts 298°
2026-05-04 14:40 36.75422 31.20824 24562 ft 413 kts 298°
2026-05-04 14:40 36.76721 31.17619 24894 ft 415 kts 298°
2026-05-04 14:41 36.78027 31.14391 25151 ft 419 kts 298°
2026-05-04 14:41 36.79351 31.11138 25410 ft 422 kts 301°
2026-05-04 14:41 36.83614 31.06308 26022 ft 422 kts 335°
2026-05-04 14:42 36.89349 31.04753 26618 ft 429 kts 356°
2026-05-04 14:42 36.92343 31.04695 26913 ft 431 kts 358°
2026-05-04 14:42 36.95357 31.04682 27193 ft 434 kts 358°
2026-05-04 14:43 36.98379 31.04675 27492 ft 435 kts 358°
2026-05-04 14:43 37.01414 31.04657 27827 ft 437 kts 358°
2026-05-04 14:43 37.04460 31.04628 28193 ft 438 kts 358°
2026-05-04 14:43 37.07498 31.04587 28607 ft 436 kts 358°
2026-05-04 14:44 37.10518 31.04538 29075 ft 432 kts 358°
2026-05-04 14:44 37.13522 31.04484 29518 ft 430 kts 358°
2026-05-04 14:44 37.16517 31.04427 29836 ft 431 kts 358°
2026-05-04 14:44 37.19511 31.04369 30123 ft 431 kts 358°
2026-05-04 14:45 37.22515 31.04312 30342 ft 433 kts 358°
2026-05-04 14:45 37.25533 31.04253 30593 ft 432 kts 357°
2026-05-04 14:45 37.28530 31.04196 30972 ft 430 kts 357°
2026-05-04 14:45 37.31516 31.04140 31239 ft 430 kts 357°
2026-05-04 14:46 37.34510 31.04083 31448 ft 431 kts 357°
2026-05-04 14:46 37.37513 31.04026 31688 ft 432 kts 357°
2026-05-04 14:46 37.40519 31.03969 31970 ft 431 kts 357°
2026-05-04 14:46 37.43516 31.03912 32287 ft 430 kts 356°
2026-05-04 14:47 37.46510 31.03856 32517 ft 431 kts 356°
2026-05-04 14:47 37.49511 31.03798 32692 ft 432 kts 356°
2026-05-04 14:47 37.52519 31.03740 32924 ft 433 kts 356°
2026-05-04 14:47 37.55490 31.03683 33187 ft 432 kts 356°
2026-05-04 14:48 37.58533 31.03626 33436 ft 431 kts 356°
2026-05-04 14:48 37.61532 31.03569 33653 ft 432 kts 356°
2026-05-04 14:48 37.64541 31.03513 33862 ft 432 kts 356°
2026-05-04 14:48 37.67512 31.03456 34018 ft 434 kts 356°
2026-05-04 14:49 37.70533 31.03398 34152 ft 435 kts 356°
2026-05-04 14:49 37.73565 31.03340 34309 ft 436 kts 356°
2026-05-04 14:49 37.76593 31.03282 34489 ft 436 kts 356°
2026-05-04 14:49 37.79634 31.03224 34621 ft 437 kts 356°
2026-05-04 14:50 37.82681 31.03165 34757 ft 438 kts 356°
2026-05-04 14:50 37.85726 31.03106 34906 ft 437 kts 357°
2026-05-04 14:50 37.91757 31.02997 34940 ft 433 kts 357°
2026-05-04 14:51 37.97819 31.02876 34945 ft 438 kts 357°
2026-05-04 14:51 38.03928 31.02762 34961 ft 440 kts 356°
2026-05-04 14:52 38.10051 31.02643 34969 ft 441 kts 357°
2026-05-04 14:52 38.16178 31.02524 34960 ft 440 kts 357°
2026-05-04 14:53 38.22285 31.02404 34958 ft 438 kts 357°
2026-05-04 14:53 38.28371 31.02286 34973 ft 436 kts 357°
2026-05-04 14:54 38.34433 31.02168 34971 ft 435 kts 357°
2026-05-04 14:54 38.40430 31.02052 34970 ft 433 kts 357°
2026-05-04 14:55 38.46447 31.01861 34968 ft 431 kts 352°
2026-05-04 14:55 38.52257 31.00079 34982 ft 427 kts 339°
2026-05-04 14:56 38.57758 30.97384 34988 ft 426 kts 338°
2026-05-04 14:56 38.63298 30.94675 34974 ft 426 kts 339°
2026-05-04 14:57 38.68840 30.91992 34990 ft 426 kts 339°
2026-05-04 14:57 38.74391 30.89316 34994 ft 427 kts 339°
2026-05-04 14:58 38.79956 30.86631 34999 ft 427 kts 339°
2026-05-04 14:58 38.85527 30.83937 34998 ft 429 kts 339°
2026-05-04 14:59 38.91129 30.81226 35001 ft 431 kts 339°
2026-05-04 15:00 38.99563 30.77129 35004 ft 432 kts 339°
2026-05-04 15:00 39.05192 30.74391 35006 ft 432 kts 339°
2026-05-04 15:01 39.13627 30.70284 35006 ft 432 kts 339°
2026-05-04 15:01 39.19238 30.67535 35016 ft 431 kts 339°
2026-05-04 15:02 39.24844 30.64790 35011 ft 430 kts 339°
2026-05-04 15:02 39.30433 30.62052 35020 ft 429 kts 339°
2026-05-04 15:03 39.36015 30.59312 35021 ft 429 kts 339°
2026-05-04 15:03 39.41596 30.56566 35018 ft 429 kts 340°
2026-05-04 15:04 39.47171 30.53820 35011 ft 428 kts 340°
2026-05-04 15:04 39.52729 30.51077 35019 ft 427 kts 340°
2026-05-04 15:05 39.58200 30.48188 35021 ft 427 kts 337°
2026-05-04 15:05 39.63620 30.45006 35014 ft 428 kts 336°
2026-05-04 15:06 39.69047 30.41787 35001 ft 429 kts 337°
2026-05-04 15:07 39.77206 30.36993 34996 ft 430 kts 337°
2026-05-04 15:07 39.82666 30.33796 34995 ft 431 kts 337°
2026-05-04 15:08 39.88132 30.30590 34995 ft 431 kts 338°
2026-05-04 15:08 39.93603 30.27388 35008 ft 432 kts 337°
2026-05-04 15:09 39.99080 30.24147 35025 ft 433 kts 338°
2026-05-04 15:09 40.04581 30.20912 35029 ft 435 kts 338°
2026-05-04 15:10 40.12853 30.16053 35045 ft 435 kts 338°
2026-05-04 15:11 40.21120 30.11151 35008 ft 435 kts 338°
2026-05-04 15:11 40.26632 30.07870 35023 ft 436 kts 338°
2026-05-04 15:12 40.32154 30.04586 35037 ft 436 kts 338°
2026-05-04 15:12 40.37679 30.01292 35035 ft 437 kts 338°
2026-05-04 15:13 40.43210 29.97992 35035 ft 436 kts 338°
2026-05-04 15:13 40.48697 29.94713 35037 ft 436 kts 338°
2026-05-04 15:14 40.54224 29.91404 35013 ft 437 kts 338°
2026-05-04 15:14 40.59760 29.88084 35026 ft 438 kts 338°
2026-05-04 15:15 40.65302 29.84752 35039 ft 439 kts 338°
2026-05-04 15:15 40.70862 29.81404 35027 ft 439 kts 338°
2026-05-04 15:16 40.79177 29.76384 35028 ft 438 kts 338°
2026-05-04 15:17 40.87459 29.71374 35033 ft 436 kts 338°
2026-05-04 15:17 40.95727 29.66354 35038 ft 435 kts 338°
2026-05-04 15:18 41.01221 29.63009 35031 ft 434 kts 339°
2026-05-04 15:19 41.09444 29.57998 35016 ft 433 kts 339°
2026-05-04 15:19 41.17632 29.52990 35024 ft 431 kts 339°
2026-05-04 15:20 41.23204 29.50181 35028 ft 427 kts 347°
2026-05-04 15:20 41.28918 29.48085 35012 ft 425 kts 348°
2026-05-04 15:21 41.34623 29.45998 35013 ft 425 kts 348°
2026-05-04 15:22 41.43172 29.42782 35019 ft 427 kts 347°
2026-05-04 15:22 41.51776 29.39501 35007 ft 430 kts 348°
2026-05-04 15:23 41.57525 29.37304 34981 ft 430 kts 348°
2026-05-04 15:23 41.63289 29.35096 34997 ft 431 kts 348°
2026-05-04 15:24 41.73871 29.31040 34999 ft 433 kts 348°
2026-05-04 15:25 41.79666 29.28808 35001 ft 434 kts 348°
2026-05-04 15:26 41.88359 29.25449 34994 ft 433 kts 348°
2026-05-04 15:26 41.97052 29.22088 34999 ft 433 kts 348°
2026-05-04 15:27 42.05747 29.18719 35001 ft 434 kts 348°
2026-05-04 15:28 42.14442 29.15322 34998 ft 435 kts 345°
2026-05-04 15:28 42.19886 29.11632 35004 ft 445 kts 328°
2026-05-04 15:29 42.22358 29.09130 35021 ft 446 kts 327°
2026-05-04 15:30 42.39628 28.91228 35010 ft 448 kts 327°
2026-05-04 15:31 42.47077 28.83552 35012 ft 449 kts 327°
2026-05-04 15:32 42.59490 28.70707 35018 ft 449 kts 327°
2026-05-04 15:34 42.71858 28.57843 35015 ft 449 kts 326°
2026-05-04 15:34 42.79293 28.50078 35025 ft 449 kts 326°
2026-05-04 15:35 42.86725 28.42292 35005 ft 450 kts 326°
2026-05-04 15:36 42.94154 28.34481 35036 ft 449 kts 326°
2026-05-04 15:36 42.99107 28.29263 35022 ft 450 kts 326°
2026-05-04 15:37 43.04059 28.24035 35032 ft 450 kts 326°
2026-05-04 15:37 43.09019 28.18786 35034 ft 450 kts 325°
2026-05-04 15:38 43.13974 28.13532 35037 ft 451 kts 325°
2026-05-04 15:38 43.18929 28.08266 35027 ft 451 kts 325°
2026-05-04 15:39 43.23889 28.02982 35010 ft 452 kts 324°
2026-05-04 15:40 43.31332 27.95044 35023 ft 452 kts 324°
2026-05-04 15:40 43.36257 27.89769 35018 ft 452 kts 324°
2026-05-04 15:41 43.41200 27.84461 35025 ft 451 kts 324°
2026-05-04 15:41 43.46136 27.79142 35033 ft 450 kts 323°
2026-05-04 15:42 43.51075 27.73871 35021 ft 449 kts 324°
2026-05-04 15:42 43.55984 27.68561 35028 ft 447 kts 324°
2026-05-04 15:43 43.60868 27.63259 35034 ft 446 kts 324°
2026-05-04 15:43 43.65743 27.57964 35030 ft 445 kts 323°
2026-05-04 15:44 43.70612 27.52673 35032 ft 445 kts 323°
2026-05-04 15:44 43.75482 27.47371 35030 ft 446 kts 323°
2026-05-04 15:45 43.80361 27.42049 35033 ft 447 kts 324°
2026-05-04 15:45 43.85246 27.36706 35034 ft 449 kts 323°
2026-05-04 15:46 43.90156 27.31325 35041 ft 451 kts 323°
2026-05-04 15:46 43.95088 27.25909 35043 ft 453 kts 323°
2026-05-04 15:47 44.00042 27.20457 35041 ft 455 kts 323°
2026-05-04 15:47 44.05002 27.14974 35034 ft 456 kts 322°
2026-05-04 15:48 44.09978 27.09541 35027 ft 454 kts 322°
2026-05-04 15:48 44.17358 27.01325 35029 ft 452 kts 322°
2026-05-04 15:49 44.22259 26.95857 35030 ft 451 kts 321°
2026-05-04 15:49 44.27137 26.90379 35031 ft 449 kts 322°
2026-05-04 15:50 44.32018 26.84951 35037 ft 448 kts 322°
2026-05-04 15:50 44.36884 26.79518 35040 ft 447 kts 322°
2026-05-04 15:51 44.41733 26.74085 35037 ft 447 kts 322°
2026-05-04 15:51 44.46583 26.68634 35035 ft 447 kts 322°
2026-05-04 15:52 44.51424 26.63180 35041 ft 447 kts 321°
2026-05-04 15:52 44.56262 26.57717 35039 ft 447 kts 321°
2026-05-04 15:53 44.61112 26.52238 35041 ft 447 kts 322°
2026-05-04 15:53 44.65948 26.46745 35028 ft 447 kts 321°
2026-05-04 15:54 44.70783 26.41234 35040 ft 447 kts 321°
2026-05-04 15:54 44.75585 26.35776 35039 ft 447 kts 321°
2026-05-04 15:55 44.80421 26.30267 35038 ft 447 kts 321°
2026-05-04 15:55 44.85266 26.24760 35034 ft 447 kts 321°
2026-05-04 15:56 44.90121 26.19284 35037 ft 447 kts 321°
2026-05-04 15:56 44.94969 26.13814 35040 ft 446 kts 321°
2026-05-04 15:57 44.99814 26.08319 35046 ft 446 kts 321°
2026-05-04 15:57 45.04685 26.02894 35040 ft 445 kts 320°
2026-05-04 15:58 45.09473 25.97348 35033 ft 444 kts 320°
2026-05-04 15:58 45.14271 25.91826 35049 ft 444 kts 321°
2026-05-04 15:59 45.19064 25.86332 35041 ft 443 kts 321°
2026-05-04 15:59 45.23833 25.80808 35050 ft 443 kts 320°
2026-05-04 16:00 45.28614 25.75299 35060 ft 442 kts 320°
2026-05-04 16:00 45.33447 25.69879 35285 ft 441 kts 320°
2026-05-04 16:01 45.35819 25.67165 35643 ft 437 kts 320°
2026-05-04 16:01 45.38185 25.64428 35717 ft 440 kts 320°
2026-05-04 16:01 45.42935 25.58867 36077 ft 440 kts 320°
2026-05-04 16:02 45.45290 25.56115 36436 ft 436 kts 320°
2026-05-04 16:02 45.47638 25.53374 36569 ft 438 kts 321°
2026-05-04 16:02 45.52388 25.47878 36699 ft 442 kts 320°
2026-05-04 16:03 45.54768 25.45087 36867 ft 443 kts 320°
2026-05-04 16:03 45.57145 25.42298 36968 ft 442 kts 321°
2026-05-04 16:03 45.59520 25.39512 37040 ft 442 kts 321°
2026-05-04 16:04 45.64304 25.33948 37061 ft 445 kts 321°
2026-05-04 16:04 45.71548 25.25458 37055 ft 451 kts 321°
2026-05-04 16:05 45.76393 25.19713 37048 ft 453 kts 321°
2026-05-04 16:06 45.83625 25.11180 37027 ft 443 kts 320°
2026-05-04 16:07 45.93095 24.99911 37044 ft 442 kts 321°
2026-05-04 16:08 46.02594 24.88630 37033 ft 443 kts 322°
2026-05-04 16:09 46.14473 24.74414 37023 ft 445 kts 321°
2026-05-04 16:10 46.23955 24.63001 37010 ft 445 kts 321°
2026-05-04 16:11 46.32687 24.52451 37019 ft 445 kts 321°
2026-05-04 16:12 46.46891 24.35191 37033 ft 444 kts 321°
2026-05-04 16:13 46.56330 24.23652 37043 ft 443 kts 321°
2026-05-04 16:14 46.65710 24.12132 37030 ft 442 kts 321°
2026-05-04 16:16 46.77453 23.97631 37047 ft 443 kts 321°
2026-05-04 16:17 46.89208 23.83032 37046 ft 444 kts 321°
2026-05-04 16:18 46.98595 23.71310 37050 ft 443 kts 321°
2026-05-04 16:19 47.10289 23.56624 37060 ft 442 kts 321°
2026-05-04 16:20 47.21972 23.41872 37064 ft 444 kts 320°
2026-05-04 16:22 47.33663 23.27016 37063 ft 444 kts 320°
2026-05-04 16:23 47.47664 23.09109 37049 ft 443 kts 320°
2026-05-04 16:25 47.61601 22.91146 37052 ft 442 kts 320°
2026-05-04 16:26 47.77788 22.70118 37050 ft 441 kts 320°
2026-05-04 16:28 47.89312 22.55040 37052 ft 441 kts 320°
2026-05-04 16:29 48.05383 22.33887 37052 ft 439 kts 322°
2026-05-04 16:30 48.13277 22.27082 37057 ft 437 kts 333°
2026-05-04 16:31 48.18664 22.22848 37048 ft 437 kts 333°
2026-05-04 16:32 48.34715 22.09919 37052 ft 437 kts 332°
2026-05-04 16:33 48.45408 22.01208 37051 ft 437 kts 332°
2026-05-04 16:34 48.53421 21.94656 37047 ft 437 kts 332°
2026-05-04 16:35 48.69417 21.81505 37045 ft 436 kts 332°
2026-05-04 16:36 48.77409 21.74897 37041 ft 437 kts 332°
2026-05-04 16:37 48.85409 21.68260 37040 ft 437 kts 332°
2026-05-04 16:38 48.96077 21.59375 37032 ft 437 kts 332°
2026-05-04 16:39 49.09402 21.48276 37031 ft 436 kts 331°
2026-05-04 16:40 49.20014 21.39269 37026 ft 436 kts 331°
2026-05-04 16:41 49.33304 21.28020 37012 ft 437 kts 330°
2026-05-04 16:43 49.46536 21.16730 37017 ft 436 kts 330°
2026-05-04 16:43 49.54495 21.09910 37003 ft 436 kts 330°
2026-05-04 16:45 49.70396 20.96194 36988 ft 438 kts 330°
2026-05-04 16:46 49.83710 20.84656 36988 ft 440 kts 329°
2026-05-04 16:47 49.94391 20.75338 36986 ft 441 kts 329°
2026-05-04 16:48 50.05084 20.65960 36976 ft 442 kts 329°
2026-05-04 16:49 50.15771 20.56537 36976 ft 441 kts 329°
2026-05-04 16:50 50.26440 20.47082 36975 ft 441 kts 329°
2026-05-04 16:51 50.34430 20.39966 36971 ft 440 kts 329°
2026-05-04 16:52 50.45056 20.30464 36973 ft 440 kts 328°
2026-05-04 16:53 50.53024 20.23306 36975 ft 440 kts 328°
2026-05-04 16:54 50.63597 20.13763 36967 ft 439 kts 328°
2026-05-04 16:55 50.79467 19.99348 36969 ft 438 kts 328°
2026-05-04 16:56 50.92678 19.87255 36953 ft 439 kts 328°
2026-05-04 16:57 50.99702 19.80792 36948 ft 438 kts 327°
2026-05-04 16:58 51.10234 19.71060 36960 ft 438 kts 327°
2026-05-04 17:00 51.26025 19.56377 36940 ft 437 kts 327°
2026-05-04 17:01 51.39128 19.44104 36947 ft 436 kts 327°
2026-05-04 17:02 51.49567 19.34264 36935 ft 435 kts 326°
2026-05-04 17:03 51.57371 19.26871 36938 ft 434 kts 326°
2026-05-04 17:03 51.65158 19.19470 36940 ft 433 kts 326°
2026-05-04 17:04 51.75511 19.09579 36935 ft 432 kts 326°
2026-05-04 17:05 51.85856 18.99643 36932 ft 433 kts 326°
2026-05-04 17:06 51.93612 18.92158 36933 ft 433 kts 326°
2026-05-04 17:07 52.00488 18.85497 36926 ft 433 kts 326°
2026-05-04 17:07 52.06497 18.79655 36927 ft 433 kts 326°
2026-05-04 17:08 52.14246 18.72094 36927 ft 433 kts 326°
2026-05-04 17:09 52.19419 18.67031 36928 ft 434 kts 326°
2026-05-04 17:09 52.24592 18.61954 36930 ft 434 kts 325°
2026-05-04 17:10 52.37543 18.49183 36926 ft 435 kts 325°
2026-05-04 17:11 52.42720 18.44052 36927 ft 435 kts 325°
2026-05-04 17:12 52.50479 18.36331 36920 ft 435 kts 325°
2026-05-04 17:13 52.63393 18.23414 36933 ft 434 kts 324°
2026-05-04 17:14 52.73716 18.13027 36928 ft 435 kts 324°
2026-05-04 17:15 52.81463 18.05188 36917 ft 435 kts 324°
2026-05-04 17:16 52.91780 17.94705 36932 ft 435 kts 324°
2026-05-04 17:17 53.02053 17.84207 36911 ft 435 kts 324°
2026-05-04 17:18 53.12331 17.73636 36929 ft 434 kts 324°
2026-05-04 17:19 53.22587 17.63034 36946 ft 433 kts 323°
2026-05-04 17:20 53.32841 17.52375 36936 ft 435 kts 323°
2026-05-04 17:20 53.40538 17.44330 36928 ft 435 kts 323°
2026-05-04 17:21 53.50793 17.33559 36937 ft 435 kts 323°
2026-05-04 17:22 53.55915 17.28153 36941 ft 435 kts 323°
2026-05-04 17:23 53.66159 17.17303 36942 ft 435 kts 323°
2026-05-04 17:24 53.73843 17.09119 36951 ft 435 kts 323°
2026-05-04 17:25 53.84095 16.98144 36954 ft 436 kts 322°
2026-05-04 17:26 53.94323 16.87139 36954 ft 437 kts 322°
2026-05-04 17:27 54.07155 16.73229 36960 ft 438 kts 322°
2026-05-04 17:28 54.17422 16.62026 36987 ft 438 kts 322°
2026-05-04 17:29 54.32790 16.45132 36956 ft 438 kts 321°
2026-05-04 17:31 54.45591 16.30942 36966 ft 439 kts 321°
2026-05-04 17:32 54.58417 16.16609 36955 ft 441 kts 321°
2026-05-04 17:33 54.68697 16.05054 36947 ft 442 kts 321°
2026-05-04 17:34 54.76392 15.96355 37356 ft 441 kts 321°
2026-05-04 17:34 54.78956 15.93450 37605 ft 440 kts 321°
2026-05-04 17:35 54.86638 15.84709 37931 ft 442 kts 321°
2026-05-04 17:35 54.91789 15.78827 37929 ft 443 kts 321°
2026-05-04 17:36 54.96925 15.72945 37931 ft 441 kts 321°
2026-05-04 17:36 55.02031 15.67076 37923 ft 440 kts 321°
2026-05-04 17:37 55.07129 15.61200 37925 ft 438 kts 321°
2026-05-04 17:37 55.12209 15.55327 37920 ft 437 kts 321°
2026-05-04 17:38 55.17273 15.49454 37924 ft 437 kts 321°
2026-05-04 17:38 55.22338 15.43560 37921 ft 437 kts 321°
2026-05-04 17:39 55.29940 15.34677 37923 ft 438 kts 321°
2026-05-04 17:39 55.35014 15.28725 37936 ft 439 kts 321°
2026-05-04 17:40 55.40094 15.22745 37923 ft 440 kts 321°
2026-05-04 17:40 55.45161 15.16771 37917 ft 440 kts 321°
2026-05-04 17:41 55.50244 15.10759 37920 ft 440 kts 321°
2026-05-04 17:41 55.55328 15.04723 37902 ft 440 kts 321°
2026-05-04 17:42 55.60407 14.98671 37906 ft 440 kts 321°
2026-05-04 17:42 55.65475 14.92619 37908 ft 439 kts 321°
2026-05-04 17:43 55.70533 14.86554 37907 ft 439 kts 321°
2026-05-04 17:43 55.75585 14.80481 37898 ft 438 kts 321°
2026-05-04 17:44 55.80627 14.74398 37909 ft 438 kts 321°
2026-05-04 17:44 55.84810 14.69335 37901 ft 438 kts 321°
2026-05-04 17:45 55.89830 14.63243 37904 ft 437 kts 321°
2026-05-04 17:45 55.94851 14.57131 37904 ft 436 kts 321°
2026-05-04 17:46 55.99854 14.51015 37928 ft 436 kts 321°
2026-05-04 17:46 56.04863 14.44878 37914 ft 436 kts 321°
2026-05-04 17:47 56.09869 14.38728 37903 ft 437 kts 321°
2026-05-04 17:47 56.14876 14.32553 37906 ft 437 kts 321°
2026-05-04 17:48 56.19884 14.26359 37906 ft 437 kts 321°
2026-05-04 17:48 56.24896 14.20141 37903 ft 438 kts 321°
2026-05-04 17:49 56.29906 14.13905 37898 ft 438 kts 321°
2026-05-04 17:49 56.34881 14.07688 37911 ft 438 kts 321°
2026-05-04 17:50 56.39884 14.01419 37900 ft 438 kts 321°
2026-05-04 17:50 56.44896 13.95120 37917 ft 439 kts 321°
2026-05-04 17:51 56.49905 13.88799 37897 ft 439 kts 321°
2026-05-04 17:51 56.54905 13.82469 37893 ft 439 kts 321°
2026-05-04 17:52 56.59902 13.76126 37904 ft 438 kts 321°
2026-05-04 17:52 56.64891 13.69774 37905 ft 438 kts 321°
2026-05-04 17:53 56.69870 13.63411 37893 ft 437 kts 320°
2026-05-04 17:53 56.74836 13.57044 37900 ft 436 kts 320°
2026-05-04 17:54 56.79794 13.50667 37906 ft 436 kts 320°
2026-05-04 17:54 56.84742 13.44281 37895 ft 435 kts 320°
2026-05-04 17:55 56.89665 13.37903 37889 ft 433 kts 320°
2026-05-04 17:55 56.94574 13.31525 37925 ft 432 kts 320°
2026-05-04 17:56 56.99474 13.25138 37906 ft 431 kts 320°
2026-05-04 17:56 57.04358 13.18748 37887 ft 431 kts 320°
2026-05-04 17:57 57.09229 13.12355 37892 ft 430 kts 320°
2026-05-04 17:57 57.14091 13.05950 37880 ft 429 kts 320°
2026-05-04 17:58 57.18943 12.99545 37889 ft 429 kts 320°
2026-05-04 17:58 57.23795 12.93113 37884 ft 430 kts 320°
2026-05-04 17:59 57.28649 12.86660 37905 ft 431 kts 320°
2026-05-04 18:00 57.35944 12.76923 37888 ft 431 kts 320°
2026-05-04 18:00 57.40768 12.70457 37883 ft 431 kts 319°
2026-05-04 18:01 57.45617 12.63933 37874 ft 431 kts 320°
2026-05-04 18:01 57.50466 12.57386 37886 ft 431 kts 320°
2026-05-04 18:02 57.57733 12.47534 37871 ft 431 kts 319°
2026-05-04 18:02 57.62575 12.40943 37877 ft 431 kts 319°
2026-05-04 18:03 57.67413 12.34343 37855 ft 430 kts 319°
2026-05-04 18:03 57.72232 12.27740 37859 ft 429 kts 319°
2026-05-04 18:04 57.77035 12.21133 37853 ft 428 kts 319°
2026-05-04 18:05 57.84218 12.11213 37878 ft 427 kts 319°
2026-05-04 18:05 57.89035 12.04696 37877 ft 429 kts 324°
2026-05-04 18:06 57.97571 11.98901 37874 ft 440 kts 338°
2026-05-04 18:06 58.03468 11.95830 37856 ft 440 kts 338°
2026-05-04 18:07 58.09352 11.92699 37850 ft 439 kts 338°
2026-05-04 18:07 58.15232 11.89510 37840 ft 439 kts 338°
2026-05-04 18:08 58.21115 11.86292 37834 ft 440 kts 338°
2026-05-04 18:08 58.27033 11.83035 37421 ft 446 kts 338°
2026-05-04 18:09 58.32957 11.79779 36887 ft 439 kts 338°
2026-05-04 18:09 58.38811 11.76551 36377 ft 438 kts 337°
2026-05-04 18:10 58.41729 11.74935 36129 ft 437 kts 337°
2026-05-04 18:10 58.44647 11.73317 35876 ft 436 kts 337°
2026-05-04 18:10 58.47562 11.71696 35626 ft 436 kts 337°
2026-05-04 18:10 58.50472 11.70076 35136 ft 436 kts 336°
2026-05-04 18:11 58.53352 11.68468 34504 ft 437 kts 336°
2026-05-04 18:11 58.56275 11.66833 33844 ft 438 kts 336°
2026-05-04 18:11 58.59204 11.65193 33061 ft 439 kts 336°
2026-05-04 18:11 58.62136 11.63549 32304 ft 439 kts 336°
2026-05-04 18:12 58.65067 11.61902 31569 ft 439 kts 336°
2026-05-04 18:12 58.68005 11.60249 30824 ft 440 kts 336°
2026-05-04 18:12 58.70945 11.58592 30053 ft 440 kts 336°
2026-05-04 18:12 58.73888 11.56932 29171 ft 442 kts 336°
2026-05-04 18:13 58.76826 11.55272 28497 ft 437 kts 336°
2026-05-04 18:13 58.79732 11.53633 27864 ft 433 kts 336°
2026-05-04 18:13 58.85440 11.50402 26691 ft 423 kts 335°
2026-05-04 18:14 58.88246 11.48804 26098 ft 418 kts 335°
2026-05-04 18:14 58.91025 11.47219 25549 ft 415 kts 335°
2026-05-04 18:14 58.93782 11.45643 24976 ft 411 kts 335°
2026-05-04 18:15 58.99220 11.42524 23837 ft 405 kts 334°
2026-05-04 18:15 59.04518 11.39488 23212 ft 386 kts 334°
2026-05-04 18:15 59.07053 11.38031 23056 ft 374 kts 334°
2026-05-04 18:16 59.09510 11.36612 22881 ft 365 kts 334°
2026-05-04 18:16 59.11970 11.35175 22801 ft 373 kts 333°
2026-05-04 18:16 59.14470 11.33715 22592 ft 378 kts 333°
2026-05-04 18:17 59.19768 11.32391 22102 ft 409 kts
2026-05-04 18:17 59.22562 11.33898 21743 ft 420 kts
2026-05-04 18:17 59.28066 11.37533 20895 ft 411 kts
2026-05-04 18:18 59.30748 11.39298 20501 ft 404 kts
2026-05-04 18:18 59.33409 11.41009 20108 ft 402 kts
2026-05-04 18:18 59.36063 11.42691 19737 ft 399 kts
2026-05-04 18:18 59.38701 11.44359 19414 ft 398 kts
2026-05-04 18:19 59.43959 11.47685 18592 ft 396 kts
2026-05-04 18:19 59.46578 11.49340 18211 ft 395 kts
2026-05-04 18:19 59.49187 11.50987 17802 ft 393 kts
2026-05-04 18:20 59.51788 11.52629 17381 ft 391 kts
2026-05-04 18:20 59.54360 11.54257 16969 ft 385 kts
2026-05-04 18:20 59.56872 11.55861 16605 ft 373 kts
2026-05-04 18:20 59.59308 11.57419 16234 ft 366 kts
2026-05-04 18:21 59.61715 11.58953 15884 ft 361 kts
2026-05-04 18:21 59.64096 11.60463 15530 ft 357 kts
2026-05-04 18:21 59.66450 11.61960 15235 ft 354 kts
2026-05-04 18:21 59.68788 11.63446 14862 ft 351 kts
2026-05-04 18:22 59.71106 11.64927 14510 ft 349 kts
2026-05-04 18:22 59.73399 11.66400 14163 ft 346 kts
2026-05-04 18:22 59.75682 11.67865 13822 ft 343 kts
2026-05-04 18:22 59.77946 11.69321 13469 ft 341 kts 10°
2026-05-04 18:23 59.80197 11.70769 13090 ft 338 kts 10°
2026-05-04 18:23 59.82425 11.72206 12728 ft 336 kts 10°
2026-05-04 18:23 59.84640 11.73637 12377 ft 333 kts 11°
2026-05-04 18:23 59.86830 11.75051 12042 ft 328 kts 11°
2026-05-04 18:24 59.88974 11.76441 11728 ft 321 kts 11°
2026-05-04 18:24 59.91089 11.77812 11410 ft 319 kts 11°
2026-05-04 18:24 59.93195 11.79180 11076 ft 317 kts 11°
2026-05-04 18:24 59.95279 11.80536 10783 ft 315 kts 12°
2026-05-04 18:25 59.97361 11.81895 10460 ft 314 kts 12°
2026-05-04 18:25 59.99438 11.83253 10127 ft 314 kts 12°
2026-05-04 18:25 60.01513 11.84610 9848 ft 312 kts 12°
2026-05-04 18:25 60.03554 11.85934 9715 ft 304 kts
2026-05-04 18:26 60.05584 11.86196 9412 ft 285 kts 339°
2026-05-04 18:26 60.07276 11.84500 9173 ft 267 kts 319°
2026-05-04 18:26 60.08808 11.82486 8889 ft 262 kts 321°
2026-05-04 18:26 60.10337 11.80549 8626 ft 259 kts 321°
2026-05-04 18:27 60.11835 11.78665 8355 ft 257 kts 321°
2026-05-04 18:27 60.13343 11.76766 8104 ft 255 kts 321°
2026-05-04 18:27 60.14843 11.74873 7834 ft 254 kts 321°
2026-05-04 18:27 60.16335 11.72994 7571 ft 252 kts 321°
2026-05-04 18:28 60.17818 11.71127 7315 ft 251 kts 321°
2026-05-04 18:28 60.19291 11.69268 7063 ft 250 kts 321°
2026-05-04 18:28 60.20762 11.67420 6810 ft 249 kts 321°
2026-05-04 18:28 60.22231 11.65569 6553 ft 249 kts 321°
2026-05-04 18:29 60.23695 11.63721 6300 ft 247 kts 321°
2026-05-04 18:29 60.25148 11.61883 6071 ft 246 kts 321°
2026-05-04 18:29 60.26596 11.60053 5808 ft 245 kts 321°
2026-05-04 18:29 60.28035 11.58227 5601 ft 242 kts 321°
2026-05-04 18:30 60.30892 11.54599 5322 ft 245 kts 321°
2026-05-04 18:30 60.32343 11.52756 5171 ft 247 kts 322°
2026-05-04 18:30 60.33801 11.50908 5007 ft 246 kts 322°
2026-05-04 18:31 60.35219 11.49109 4834 ft 237 kts 322°
2026-05-04 18:31 60.36591 11.47364 4713 ft 229 kts 322°
2026-05-04 18:31 60.37920 11.45671 4601 ft 222 kts 322°
2026-05-04 18:31 60.39213 11.44021 4453 ft 218 kts 322°
2026-05-04 18:32 60.40054 11.42949 4334 ft 214 kts 323°
2026-05-04 18:32 60.41246 11.41227 4224 ft 209 kts 307°
2026-05-04 18:32 60.41829 11.38625 4128 ft 206 kts 278°
2026-05-04 18:32 60.41835 11.35726 4093 ft 207 kts 262°
2026-05-04 18:33 60.41611 11.32891 4031 ft 200 kts 262°
2026-05-04 18:33 60.41396 11.30145 4022 ft 196 kts 261°
2026-05-04 18:33 60.41178 11.27413 4012 ft 197 kts 262°
2026-05-04 18:33 60.40966 11.24673 4004 ft 198 kts 262°
2026-05-04 18:34 60.40686 11.21967 3974 ft 195 kts 248°
2026-05-04 18:34 60.39736 11.20082 4005 ft 199 kts 207°
2026-05-04 18:34 60.38418 11.19258 4004 ft 195 kts 206°
2026-05-04 18:34 60.37166 11.18292 3905 ft 192 kts 205°
2026-05-04 18:35 60.35914 11.17453 3664 ft 188 kts 203°
2026-05-04 18:35 60.34673 11.16717 3413 ft 183 kts 202°
2026-05-04 18:35 60.33460 11.16010 3176 ft 180 kts 202°
2026-05-04 18:35 60.32267 11.15325 2924 ft 177 kts 202°
2026-05-04 18:36 60.31103 11.14647 2689 ft 171 kts 202°
2026-05-04 18:36 60.29993 11.14015 2458 ft 162 kts 202°
2026-05-04 18:36 60.28938 11.13405 2261 ft 154 kts 202°
2026-05-04 18:36 60.27945 11.12832 2033 ft 142 kts 204°
2026-05-04 18:37 60.27018 11.12297 1820 ft 135 kts 204°
2026-05-04 18:37 60.26125 11.11759 1630 ft 138 kts 206°
2026-05-04 18:37 60.25175 11.11276 1471 ft 140 kts 199°
2026-05-04 18:37 60.24257 11.10774 1307 ft 137 kts 206°
2026-05-04 18:38 60.23359 11.10149 1112 ft 137 kts 201°
2026-05-04 18:38 60.22430 11.09626 907 ft 140 kts 200°
2026-05-04 18:38 60.21490 11.09101 694 ft 139 kts 200°
2026-05-04 18:38 60.20643 11.08599 678 ft 108 kts 195°
2026-05-04 18:39 60.20243 11.08376 676 ft 36 kts 194°
2026-05-04 18:39 60.20042 11.08300 675 ft 19 kts 182°
2026-05-04 18:39 60.19948 11.08318 672 ft 13 kts 164°
2026-05-04 18:39 60.19893 11.08423 674 ft 9 kts 107°
2026-05-04 18:40 60.19877 11.08548 677 ft 9 kts 105°
2026-05-04 18:40 60.19860 11.08671 677 ft 9 kts 106°
2026-05-04 18:40 60.19842 11.08798 675 ft 11 kts 107°
2026-05-04 18:40 60.19822 11.08941 676 ft 10 kts 106°
2026-05-04 18:41 60.19801 11.09080 682 ft 10 kts 107°
2026-05-04 18:41 60.19782 11.09214 682 ft 10 kts 106°
2026-05-04 18:41 60.19763 11.09345 681 ft 10 kts 106°
2026-05-04 18:41 60.19745 11.09473 680 ft 9 kts 105°
2026-05-04 18:42 60.19727 11.09599 682 ft 9 kts 106°
2026-05-04 18:42 60.19711 11.09701 682 ft 7 kts 114°
2026-05-04 18:42 60.19669 11.09738 681 ft 7 kts 186°
2026-05-04 18:42 60.19621 11.09735 678 ft 7 kts 165°
2026-05-04 18:43 60.19586 11.09783 680 ft 3 kts 140°
2026-05-04 18:43 60.19571 11.09806 678 ft 3 kts 147°
2026-05-04 18:43 60.19554 11.09817 684 ft 3 kts 169°
2026-05-04 18:43 60.19535 11.09819 679 ft 3 kts 181°
2026-05-04 18:44 60.19517 11.09817 681 ft 2 kts 183°
2026-05-04 18:44 60.19516 11.09817 684 ft 0 kts 183°